This demonstration page uses our WeatherBlox Daily Observations layout. Learn more.

Left ArrowRight Arrow

39.92423, -83.80882

Hourly Observations for February 13, 2022

Temp ( °F °C ) Dew Point ( °F °C ) Humidity (%) Winds ( mph kmh ) Pressure ( in mb ) Visibility ( mi km ) Precip ( " mm )
12:56 am 00:56 Cloudy 21 -6.1 16 -8.9 81 81 NW 7 11 30.31 1026 10 16 0.00 0.00
1:56 am 01:56 Cloudy with Light Snow 20 -6.7 15 -9.4 81 81 WNW 12 19 30.30 1026 9 14 0.00 0.00
2:33 am 02:33 Cloudy with Light Snow 19 -7 12 -11 73 73 WNW 12 19 30.34 1027 9 14 0.00 0.00
2:56 am 02:56 Cloudy with Light Snow 19 -7.2 14 -10 81 81 NW 13 20 30.30 1026 8 13 0.00 0.00
3:12 am 03:12 Cloudy with Light Snow 19 -7 12 -11 73 73 WNW 10 17 30.34 1027 9 14 0.00 0.00
3:56 am 03:56 Cloudy with Light Snow 18 -7.8 14 -10 84 84 NW 8 13 30.29 1026 9 14 0.00 0.00
4:48 am 04:48 Cloudy with Light Snow 18 -8 14 -10 86 86 W 9 15 30.33 1027 9 14 0.00 0.00
4:56 am 04:56 Cloudy with Light Snow 18 -7.8 12 -11.1 77 77 W 9 15 30.29 1026 9 14 0.00 0.00
5:56 am 05:56 Cloudy with Light Snow 18 -7.8 12 -11.1 77 77 WNW 6 9 30.28 1025 9 14 0.00 0.00
6:56 am 06:56 Cloudy with Light Snow 18 -7.8 11 -11.7 74 74 WNW 9 15 30.28 1026 9 14 0.00 0.00
7:56 am 07:56 Cloudy with Light Snow 18 -7.8 10 -12.2 71 71 W 5 7 30.29 1026 10 16 0.00 0.00
8:56 am 08:56 Cloudy with Light Snow 18 -7.8 11 -11.7 74 74 W 8 13 30.30 1026 9 14 0.00 0.00
9:08 am 09:08 Cloudy with Light Snow 18 -8 10 -12 73 73 WNW 7 11 30.33 1027 9 14 0.00 0.00
9:42 am 09:42 Cloudy with Light Snow 18 -8 10 -12 73 73 W 6 9 30.34 1027 8 13 0.00 0.00
9:56 am 09:56 Cloudy with Light Snow 19 -7.2 11 -11.7 71 71 WNW 9 15 30.30 1026 9 14 0.00 0.00
10:56 am 10:56 Cloudy with Light Snow 19 -7.2 11 -11.7 71 71 NW 7 11 30.30 1026 9 14 0.00 0.00
11:56 am 11:56 Cloudy with Light Snow 20 -6.7 11 -11.7 68 68 W 10 17 30.29 1026 9 14 0.00 0.00
12:37 pm 12:37 Cloudy 21 -6 10 -12 63 63 W 8 13 30.30 1026 10 16 0.00 0.00
12:56 pm 12:56 Cloudy 20 -6.7 11 -11.7 68 68 NW 13 20 30.26 1025 10 16 0.00 0.00
1:56 pm 13:56 Cloudy 22 -5.6 10 -12.2 60 60 W 10 17 30.22 1023 10 16 0.00 0.00
2:56 pm 14:56 Cloudy 22 -5.6 11 -11.7 63 63 NW 9 15 30.21 1023 10 16 0.00 0.00
3:56 pm 15:56 Cloudy with Light Snow 21 -6.1 12 -11.1 68 68 NNW 6 9 30.21 1023 8 13 0.00 0.00
4:56 pm 16:56 Cloudy with Light Snow 20 -6.7 16 -8.9 85 85 NW 7 11 30.22 1023 3 5 0.00 0.00
5:13 pm 17:13 Cloudy with Light Snow 19 -7 16 -9 86 86 NW 9 15 30.25 1024 2 3 0.00 0.00
5:35 pm 17:35 Cloudy with Light Snow 19 -7 18 -8 93 93 NW 8 13 30.26 1025 1 2 0.00 0.00
5:43 pm 17:43 Cloudy with Light Snow 19 -7 18 -8 93 93 NW 8 13 30.26 1025 1 2 0.00 0.00
5:56 pm 17:56 Cloudy with Light Snow 20 -6.7 18 -7.8 92 92 NW 9 15 30.23 1024 1 2 0.00 0.00
6:04 pm 18:04 Cloudy with Light Snow 19 -7 18 -8 93 93 NW 9 15 30.26 1025 1 2 0.00 0.00
6:16 pm 18:16 Cloudy with Light Snow 19 -7 18 -8 93 93 NW 9 15 30.26 1025 2 2 0.00 0.00
6:21 pm 18:21 Cloudy with Light Snow 19 -7 16 -9 86 86 NW 9 15 30.26 1025 3 5 0.00 0.00
6:40 pm 18:40 Cloudy with Light Snow 18 -8 16 -9 93 93 NW 8 13 30.27 1025 4 6 0.00 0.00
6:56 pm 18:56 Cloudy with Light Snow 18 -7.8 16 -8.9 92 92 NW 10 17 30.24 1024 5 8 0.00 0.00
7:21 pm 19:21 Cloudy with Light Snow 18 -8 16 -9 93 93 WNW 7 11 30.28 1025 3 5 0.00 0.00
7:29 pm 19:29 Cloudy with Light Snow 18 -8 16 -9 93 93 WNW 12 19 30.28 1025 4 6 0.00 0.00
7:56 pm 19:56 Cloudy with Light Snow 17 -8.3 14 -10 88 88 WNW 13 20 30.26 1025 9 14 0.00 0.00
8:04 pm 20:04 Cloudy 18 -8 12 -11 79 79 WNW 13 20 30.29 1026 9 14 0.00 0.00
8:56 pm 20:56 Mostly Clear 16 -8.9 12 -11.1 84 84 WNW 15 24 30.27 1025 10 16 0.00 0.00
9:21 pm 21:21 Mostly Cloudy 16 -9 12 -11 86 86 WNW 10 17 30.31 1026 9 14 0.00 0.00
9:40 pm 21:40 Partly Cloudy 16 -9 12 -11 86 86 WNW 9 15 30.31 1026 10 16 0.00 0.00
9:56 pm 21:56 Mostly Clear 15 -9.4 11 -11.7 84 84 WNW 8 13 30.27 1025 10 16 0.00 0.00
10:56 pm 22:56 Clear 13 -10.6 10 -12.2 88 88 NW 9 15 30.28 1026 10 16 0.00 0.00
11:56 pm 23:56 Clear 12 -11.1 9 -12.8 87 87 NW 7 11 30.28 1026 10 16 0.00 0.00

Powered by AerisWeather